Regional Weather Roundup
Issued by NWS

Home | Current Version | Previous Version | Graphics & Text | Print | Product List | Glossary Off
Versions: 1 2 3 4 5 6 7 8 9 10 11 12 13 14 15 16 17 18 19 20 21 22 23 24 25 26 27 28 29 30 31 32 33 34 35 36 37 38 39 40 41 42 43 44 45 46 47 48 49 50

000
ASUS43 KIND 260709
RWRIN

WEATHER ROUNDUP FOR INDIANA
NATIONAL WEATHER SERVICE INDIANAPOLIS IN
300 AM EDT WED JUL 26 2017

NOTE: "FAIR" INDICATES FEW OR NO CLOUDS BELOW 12,000 FEET WITH NO
SIGNIFICANT WEATHER AND/OR OBSTRUCTIONS TO VISIBILITY.

* - STATION DOES NOT REPORT WEATHER SUCH AS PRECIPITATION OR FOG.

+ - STATION NOT QUALITY CONTROLLED BY THE NATIONAL WEATHER SERVICE.
    USE DATA WITH CAUTION...ESPECIALLY DEWPOINT AND RELATIVE
    HUMIDITY OBSERVATIONS.

INZ001>003-010>013-019-020-260800-
NORTHWEST INDIANA

CITY           SKY/WX    TMP DP  RH WIND       PRES   REMARKS
GARY /AIRPORT/ CLOUDY    69  59  72 SE6       30.15R
KNOX *+        CLEAR     61  59  94 CALM      30.15S
LA PORTE +     PTCLDY    61  58  91 SE3       30.16S
MICHIGAN CITY+ CLEAR     68  59  73 S3        30.15S
MONTICELLO +   CLEAR     64  61  88 CALM      30.14S
RENSSELAER +   CLEAR     63  59  88 SE6       30.14S
VALPARAISO     CLEAR     65  60  84 E3        30.16R

$$

LMZ046-743>745-260800-
SOUTHERN LAKE MICHIGAN

STATION/POSITION TIME  TEMP    WIND        PRES    WAVE
                       AIR SEA DIR/SP/G            HT
                 (UTC) (F)     (DEG/KT/KT) (MB)    (FT)
BURNS HARBOR     0603   70     170/  7/ 16 1020.7
MICHIGAN CITY    0640   69     150/  8/  9   N/A
5NW MICH CITY    0700   70 74  160/ 12/ 14   N/A     1

$$

INZ004-005-014>016-021>024-260800-
NORTH CENTRAL INDIANA

CITY           SKY/WX    TMP DP  RH WIND       PRES   REMARKS
GOSHEN         MOCLDY    60  55  83 SE6       30.17R
LOGANSPORT +   PTCLDY    61  59  94 CALM      30.16S
PERU/GRISSOM   PTCLDY    63  61  93 SE3       30.14F
ROCHESTER +    PTCLDY    64  61  88 E3        30.17R
SOUTH BEND     CLEAR     66  59  78 SE7       30.16S
WARSAW +       CLOUDY    61  59  94 CALM      30.17S

$$

INZ006>009-017-018-025>027-260800-
NORTHEAST INDIANA

CITY           SKY/WX    TMP DP  RH WIND       PRES   REMARKS
AUBURN +       CLEAR     61  57  88 CALM      30.19S
FORT WAYNE     MOCLDY    63  59  87 SE3       30.17F
HUNTINGTON +   CLEAR     63  61  93 S5        30.16F
KENDALLVILLE + CLOUDY    61  58  92 CALM      30.20R

$$

INZ028-029-035-036-043>045-051>053-260800-
WEST CENTRAL INDIANA

CITY           SKY/WX    TMP DP  RH WIND       PRES   REMARKS
GREENCASTLE +  CLEAR     61  59  94 CALM      30.14F
LAFAYETTE      CLEAR     64  60  87 E3        30.14R
TERRE HAUTE    CLEAR     64  60  87 E5        30.13F

$$

INZ030>032-037>040-046>048-054>057-064-065-260800-
CENTRAL INDIANA

CITY           SKY/WX    TMP DP  RH WIND       PRES   REMARKS
CP ATTERBURY + CLEAR     59  55  88 CALM      30.15F
FRANKFORT +    PTCLDY    63  61  92 S3        30.17R
GREENWOOD *+   CLEAR    N/A N/A N/A SE6       30.15F
INDIANAPOLIS   CLEAR     66  61  84 SE8       30.14F
-EAGLE CREEK   CLEAR     68  60  75 SE5       30.14F
KOKOMO +       CLOUDY    62  59  90 SE6       30.16F
MT COMFORT *+  CLEAR     63  61  94 SE3       30.17S
SHELBYVILLE    CLEAR     63  59  87 E6        30.15F
ZIONSVILLE +   CLEAR     63  60  89 SE3       30.16S

$$

INZ033-034-041-042-049-050-058-059-260800-
EAST CENTRAL INDIANA

CITY           SKY/WX    TMP DP  RH WIND       PRES   REMARKS
MUNCIE         CLEAR     66  60  81 S6        30.16F
RICHMOND +     CLEAR     57  57 100 SE5       30.18F

$$

INZ060-061-067>069-081>083-085>088-260800-
SOUTHWEST INDIANA

CITY           SKY/WX    TMP DP  RH WIND       PRES   REMARKS
EVANSVILLE     CLEAR     73  67  81 CALM      30.10F
HUNTINGBURG *+ CLOUDY    72  67  84 SE3       30.11F

$$

INZ062-063-066-070>080-084-089>092-260800-
SOUTH CENTRAL AND SOUTHEAST INDIANA

CITY           SKY/WX    TMP DP  RH WIND       PRES   REMARKS
BEDFORD +      CLEAR     64  61  88 E3        30.13S
BLOOMINGTON    CLEAR     66  60  81 E5        30.13F
MADISON *+     CLEAR     66  61  82 E6        30.17F
NORTH VERNON + CLEAR     63  61  94 E3        30.16F
SEYMOUR +      CLEAR     64  63  94 CALM      30.14F

$$





USA.gov is the U.S. government's official web portal to all federal, state and local government web resources and services.